Year,Month,Day,Hour,Minute,Value (Times are PST for temperature in C)
2010,05,04,00,00,4.30
2010,05,04,00,01,4.30
2010,05,04,00,02,4.30
2010,05,04,00,03,4.30
2010,05,04,00,04,4.30
2010,05,04,00,05,4.30
2010,05,04,00,06,4.20
2010,05,04,00,07,4.20
2010,05,04,00,08,4.20
2010,05,04,00,09,4.20
2010,05,04,00,10,4.20
2010,05,04,00,11,4.20
2010,05,04,00,12,4.20
2010,05,04,00,13,4.20
2010,05,04,00,14,4.20
2010,05,04,00,15,4.20
2010,05,04,00,16,4.20
2010,05,04,00,17,4.20
2010,05,04,00,18,4.20
2010,05,04,00,19,4.20
2010,05,04,00,20,4.20
2010,05,04,00,21,4.30
2010,05,04,00,22,4.30
2010,05,04,00,23,4.30
2010,05,04,00,24,4.40
2010,05,04,00,25,4.50
2010,05,04,00,26,4.50
2010,05,04,00,27,4.60
2010,05,04,00,28,4.70
2010,05,04,00,29,4.80
2010,05,04,00,30,4.90
2010,05,04,00,31,4.90
2010,05,04,00,32,5.10
2010,05,04,00,33,5.10
2010,05,04,00,34,5.20
2010,05,04,00,35,5.30
2010,05,04,00,36,5.40
2010,05,04,00,37,5.40
2010,05,04,00,38,5.50
2010,05,04,00,39,5.50
2010,05,04,00,40,5.60
2010,05,04,00,41,5.60
2010,05,04,00,42,5.70
2010,05,04,00,43,5.70
2010,05,04,00,44,5.70
2010,05,04,00,45,5.70
2010,05,04,00,46,5.70
2010,05,04,00,47,5.80
2010,05,04,00,48,5.80
2010,05,04,00,49,5.80
2010,05,04,00,50,5.90
2010,05,04,00,51,5.90
2010,05,04,00,52,5.90
2010,05,04,00,53,5.90
2010,05,04,00,54,5.90
2010,05,04,00,55,5.90
2010,05,04,00,56,6.00
2010,05,04,00,57,6.00
2010,05,04,00,58,6.00
2010,05,04,00,59,6.00
2010,05,04,01,00,6.00
2010,05,04,01,01,6.00
2010,05,04,01,02,6.00
2010,05,04,01,03,6.00
2010,05,04,01,04,6.10
2010,05,04,01,05,6.10
2010,05,04,01,06,6.10
2010,05,04,01,07,6.20
2010,05,04,01,08,6.20
2010,05,04,01,09,6.20
2010,05,04,01,10,6.20
2010,05,04,01,11,6.20
2010,05,04,01,12,6.20
2010,05,04,01,13,6.20
2010,05,04,01,14,6.20
2010,05,04,01,15,6.20
2010,05,04,01,16,6.20
2010,05,04,01,17,6.20
2010,05,04,01,18,6.20
2010,05,04,01,19,6.20
2010,05,04,01,20,6.20
2010,05,04,01,21,6.20
2010,05,04,01,22,6.20
2010,05,04,01,23,6.20
2010,05,04,01,24,6.20
2010,05,04,01,25,6.20
2010,05,04,01,26,6.20
2010,05,04,01,27,6.20
2010,05,04,01,28,6.20
2010,05,04,01,29,6.20
2010,05,04,01,30,6.20
2010,05,04,01,31,6.10
2010,05,04,01,32,6.10
2010,05,04,01,33,6.10
2010,05,04,01,34,6.10
2010,05,04,01,35,6.10
2010,05,04,01,36,6.10
2010,05,04,01,37,6.10
2010,05,04,01,38,6.00
2010,05,04,01,39,6.00
2010,05,04,01,40,6.00
2010,05,04,01,41,6.00
2010,05,04,01,42,6.00
2010,05,04,01,43,6.00
2010,05,04,01,44,6.00
2010,05,04,01,45,5.90
2010,05,04,01,46,5.90
2010,05,04,01,47,5.90
2010,05,04,01,48,5.90
2010,05,04,01,49,5.90
2010,05,04,01,50,5.80
2010,05,04,01,51,5.80
2010,05,04,01,52,5.80
2010,05,04,01,53,5.80
2010,05,04,01,54,5.80
2010,05,04,01,55,5.70
2010,05,04,01,56,5.70
2010,05,04,01,57,5.70
2010,05,04,01,58,5.70
2010,05,04,01,59,5.70
2010,05,04,02,00,5.70
2010,05,04,02,01,5.60
2010,05,04,02,02,5.60
2010,05,04,02,03,5.60
2010,05,04,02,04,5.60
2010,05,04,02,05,5.60
2010,05,04,02,06,5.60
2010,05,04,02,07,5.60
2010,05,04,02,08,5.60
2010,05,04,02,09,5.60
2010,05,04,02,10,5.50
2010,05,04,02,11,5.50
2010,05,04,02,12,5.40
2010,05,04,02,13,5.40
2010,05,04,02,14,5.40
2010,05,04,02,15,5.40
2010,05,04,02,16,5.40
2010,05,04,02,17,5.40
2010,05,04,02,18,5.40
2010,05,04,02,19,5.40
2010,05,04,02,20,5.40
2010,05,04,02,21,5.40
2010,05,04,02,22,5.40
2010,05,04,02,23,5.40
2010,05,04,02,24,5.40
2010,05,04,02,25,5.40
2010,05,04,02,26,5.40
2010,05,04,02,27,5.40
2010,05,04,02,28,5.40
2010,05,04,02,29,5.50
2010,05,04,02,30,5.40
2010,05,04,02,31,5.50
2010,05,04,02,32,5.50
2010,05,04,02,33,5.40
2010,05,04,02,34,5.40
2010,05,04,02,35,5.40
2010,05,04,02,36,5.40
2010,05,04,02,37,5.40
2010,05,04,02,38,5.40
2010,05,04,02,39,5.40
2010,05,04,02,40,5.40
2010,05,04,02,41,5.30
2010,05,04,02,42,5.30
2010,05,04,02,43,5.30
2010,05,04,02,44,5.30
2010,05,04,02,45,5.30
2010,05,04,02,46,5.20
2010,05,04,02,47,5.20
2010,05,04,02,48,5.20
2010,05,04,02,49,5.10
2010,05,04,02,50,5.10
2010,05,04,02,51,5.10
2010,05,04,02,52,5.10
2010,05,04,02,53,5.10
2010,05,04,02,54,5.10
2010,05,04,02,55,5.10
2010,05,04,02,56,5.00
2010,05,04,02,57,5.00
2010,05,04,02,58,5.00
2010,05,04,02,59,4.90
2010,05,04,03,00,4.90
2010,05,04,03,01,4.90
2010,05,04,03,02,4.90
2010,05,04,03,03,4.80
2010,05,04,03,04,4.80
2010,05,04,03,05,4.80
2010,05,04,03,06,4.70
2010,05,04,03,07,4.70
2010,05,04,03,08,4.60
2010,05,04,03,09,4.60
2010,05,04,03,10,4.50
2010,05,04,03,11,4.50
2010,05,04,03,12,4.40
2010,05,04,03,13,4.40
2010,05,04,03,14,4.30
2010,05,04,03,15,4.30
2010,05,04,03,16,4.30
2010,05,04,03,17,4.30
2010,05,04,03,18,4.20
2010,05,04,03,19,4.20
2010,05,04,03,20,4.10
2010,05,04,03,21,4.10
2010,05,04,03,22,4.10
2010,05,04,03,23,4.00
2010,05,04,03,24,4.00
2010,05,04,03,25,3.90
2010,05,04,03,26,3.90
2010,05,04,03,27,3.90
2010,05,04,03,28,3.80
2010,05,04,03,29,3.90
2010,05,04,03,30,3.90
2010,05,04,03,31,3.90
2010,05,04,03,32,3.90
2010,05,04,03,33,4.00
2010,05,04,03,34,4.00
2010,05,04,03,35,4.10
2010,05,04,03,36,4.10
2010,05,04,03,37,4.10
2010,05,04,03,38,4.20
2010,05,04,03,39,4.20
2010,05,04,03,40,4.20
2010,05,04,03,41,4.20
2010,05,04,03,42,4.30
2010,05,04,03,43,4.30
2010,05,04,03,44,4.20
2010,05,04,03,45,4.20
2010,05,04,03,46,4.20
2010,05,04,03,47,4.20
2010,05,04,03,48,4.20
2010,05,04,03,49,4.20
2010,05,04,03,50,4.20
2010,05,04,03,51,4.10
2010,05,04,03,52,4.10
2010,05,04,03,53,4.10
2010,05,04,03,54,4.00
2010,05,04,03,55,4.00
2010,05,04,03,56,3.90
2010,05,04,03,57,3.90
2010,05,04,03,58,3.80
2010,05,04,03,59,3.80
2010,05,04,04,00,3.70
2010,05,04,04,01,3.70
2010,05,04,04,02,3.60
2010,05,04,04,03,3.60
2010,05,04,04,04,3.60
2010,05,04,04,05,3.60
2010,05,04,04,06,3.50
2010,05,04,04,07,3.50
2010,05,04,04,08,3.40
2010,05,04,04,09,3.40
2010,05,04,04,10,3.40
2010,05,04,04,11,3.40
2010,05,04,04,12,3.40
2010,05,04,04,13,3.30
2010,05,04,04,14,3.30
2010,05,04,04,15,3.30
2010,05,04,04,16,3.30
2010,05,04,04,17,3.30
2010,05,04,04,18,3.20
2010,05,04,04,19,3.20
2010,05,04,04,20,3.20
2010,05,04,04,21,3.20
2010,05,04,04,22,3.20
2010,05,04,04,23,3.20
2010,05,04,04,24,3.20
2010,05,04,04,25,3.20
2010,05,04,04,26,3.20
2010,05,04,04,27,3.20
2010,05,04,04,28,3.20
2010,05,04,04,29,3.10
2010,05,04,04,30,3.10
2010,05,04,04,31,3.10
2010,05,04,04,32,3.10
2010,05,04,04,33,3.10
2010,05,04,04,34,3.10
2010,05,04,04,35,3.10
2010,05,04,04,36,3.10
2010,05,04,04,37,3.10
2010,05,04,04,38,3.10
2010,05,04,04,39,3.10
2010,05,04,04,40,3.10
2010,05,04,04,41,3.10
2010,05,04,04,42,3.10
2010,05,04,04,43,3.10
2010,05,04,04,44,3.10
2010,05,04,04,45,3.00
2010,05,04,04,46,3.00
2010,05,04,04,47,3.00
2010,05,04,04,48,3.00
2010,05,04,04,49,3.00
2010,05,04,04,50,3.00
2010,05,04,04,51,3.00
2010,05,04,04,52,2.90
2010,05,04,04,53,2.90
2010,05,04,04,54,2.90
2010,05,04,04,55,2.80
2010,05,04,04,56,2.80
2010,05,04,04,57,2.80
2010,05,04,04,58,2.80
2010,05,04,04,59,2.70
2010,05,04,05,00,2.70
2010,05,04,05,01,2.70
2010,05,04,05,02,2.60
2010,05,04,05,03,2.60
2010,05,04,05,04,2.60
2010,05,04,05,05,2.60
2010,05,04,05,06,2.60
2010,05,04,05,07,2.50
2010,05,04,05,08,2.50
2010,05,04,05,09,2.50
2010,05,04,05,10,2.50
2010,05,04,05,11,2.50
2010,05,04,05,12,2.50
2010,05,04,05,13,2.50
2010,05,04,05,14,2.60
2010,05,04,05,15,2.60
2010,05,04,05,16,2.60
2010,05,04,05,17,2.60
2010,05,04,05,18,2.60
2010,05,04,05,19,2.60
2010,05,04,05,20,2.60
2010,05,04,05,21,2.60
2010,05,04,05,22,2.60
2010,05,04,05,23,2.60
2010,05,04,05,24,2.70
2010,05,04,05,25,2.70
2010,05,04,05,26,2.70
2010,05,04,05,27,2.70
2010,05,04,05,28,2.80
2010,05,04,05,29,2.80
2010,05,04,05,30,2.80
2010,05,04,05,31,2.80
2010,05,04,05,32,2.80
2010,05,04,05,33,2.80
2010,05,04,05,34,2.90
2010,05,04,05,35,2.90
2010,05,04,05,36,2.90
2010,05,04,05,37,3.00
2010,05,04,05,38,3.00
2010,05,04,05,39,3.00
2010,05,04,05,40,3.00
2010,05,04,05,41,3.00
2010,05,04,05,42,3.00
2010,05,04,05,43,3.00
2010,05,04,05,44,3.00
2010,05,04,05,45,3.00
2010,05,04,05,46,3.00
2010,05,04,05,47,3.00
2010,05,04,05,48,3.00
2010,05,04,05,49,3.00
2010,05,04,05,50,2.90
2010,05,04,05,51,2.90
2010,05,04,05,52,2.90
2010,05,04,05,53,2.90
2010,05,04,05,54,2.90
2010,05,04,05,55,3.00
2010,05,04,05,56,3.00
2010,05,04,05,57,3.10
2010,05,04,05,58,3.10
2010,05,04,05,59,3.20
2010,05,04,06,00,3.20
2010,05,04,06,01,3.20
2010,05,04,06,02,3.20
2010,05,04,06,03,3.20
2010,05,04,06,04,3.30
2010,05,04,06,05,3.30
2010,05,04,06,06,3.30
2010,05,04,06,07,3.30
2010,05,04,06,08,3.30
2010,05,04,06,09,3.30
2010,05,04,06,10,3.30
2010,05,04,06,11,3.30
2010,05,04,06,12,3.30
2010,05,04,06,13,3.30
2010,05,04,06,14,3.30
2010,05,04,06,15,3.30
2010,05,04,06,16,3.30
2010,05,04,06,17,3.30
2010,05,04,06,18,3.30
2010,05,04,06,19,3.40
2010,05,04,06,20,3.40
2010,05,04,06,21,3.40
2010,05,04,06,22,3.40
2010,05,04,06,23,3.40
2010,05,04,06,24,3.40
2010,05,04,06,25,3.40
2010,05,04,06,26,3.50
2010,05,04,06,27,3.50
2010,05,04,06,28,3.50
2010,05,04,06,29,3.60
2010,05,04,06,30,3.60
2010,05,04,06,31,3.60
2010,05,04,06,32,3.60
2010,05,04,06,33,3.70
2010,05,04,06,34,3.70
2010,05,04,06,35,3.70
2010,05,04,06,36,3.70
2010,05,04,06,37,3.70
2010,05,04,06,38,3.70
2010,05,04,06,39,3.70
2010,05,04,06,40,3.70
2010,05,04,06,41,3.70
2010,05,04,06,42,3.70
2010,05,04,06,43,3.70
2010,05,04,06,44,3.70
2010,05,04,06,45,3.70
2010,05,04,06,46,3.70
2010,05,04,06,47,3.70
2010,05,04,06,48,3.70
2010,05,04,06,49,3.70
2010,05,04,06,50,3.70
2010,05,04,06,51,3.70
2010,05,04,06,52,3.60
2010,05,04,06,53,3.60
2010,05,04,06,54,3.60
2010,05,04,06,55,3.70
2010,05,04,06,56,3.70
2010,05,04,06,57,3.70
2010,05,04,06,58,3.80
2010,05,04,06,59,3.80
2010,05,04,07,00,3.90
2010,05,04,07,01,4.00
2010,05,04,07,02,4.10
2010,05,04,07,03,4.10
2010,05,04,07,04,4.20
2010,05,04,07,05,4.30
2010,05,04,07,06,4.40
2010,05,04,07,07,4.40
2010,05,04,07,08,4.50
2010,05,04,07,09,4.60
2010,05,04,07,10,4.70
2010,05,04,07,11,4.70
2010,05,04,07,12,4.80
2010,05,04,07,13,4.90
2010,05,04,07,14,4.90
2010,05,04,07,15,5.00
2010,05,04,07,16,5.10
2010,05,04,07,17,5.20
2010,05,04,07,18,5.30
2010,05,04,07,19,5.30
2010,05,04,07,20,5.40
2010,05,04,07,21,5.60
2010,05,04,07,22,5.70
2010,05,04,07,23,5.80
2010,05,04,07,24,5.80
2010,05,04,07,25,6.00
2010,05,04,07,26,6.10
2010,05,04,07,27,6.10
2010,05,04,07,28,6.20
2010,05,04,07,29,6.30
2010,05,04,07,30,6.30
2010,05,04,07,31,6.40
2010,05,04,07,32,6.50
2010,05,04,07,33,6.60
2010,05,04,07,34,6.60
2010,05,04,07,35,6.70
2010,05,04,07,36,6.80
2010,05,04,07,37,6.80
2010,05,04,07,38,6.90
2010,05,04,07,39,7.00
2010,05,04,07,40,7.00
2010,05,04,07,41,7.10
2010,05,04,07,42,7.10
2010,05,04,07,43,7.20
2010,05,04,07,44,7.20
2010,05,04,07,45,7.20
2010,05,04,07,46,7.30
2010,05,04,07,47,7.30
2010,05,04,07,48,7.30
2010,05,04,07,49,7.40
2010,05,04,07,50,7.40
2010,05,04,07,51,7.50
2010,05,04,07,52,7.50
2010,05,04,07,53,7.50
2010,05,04,07,54,7.50
2010,05,04,07,55,7.60
2010,05,04,07,56,7.60
2010,05,04,07,57,7.70
2010,05,04,07,58,7.70
2010,05,04,07,59,7.70
2010,05,04,08,00,7.70
2010,05,04,08,01,7.70
2010,05,04,08,02,7.80
2010,05,04,08,03,7.80
2010,05,04,08,04,7.70
2010,05,04,08,05,7.80
2010,05,04,08,06,7.80
2010,05,04,08,07,7.90
2010,05,04,08,08,7.90
2010,05,04,08,09,7.90
2010,05,04,08,10,7.90
2010,05,04,08,11,7.90
2010,05,04,08,12,7.90
2010,05,04,08,13,8.00
2010,05,04,08,14,8.00
2010,05,04,08,15,8.10
2010,05,04,08,16,8.10
2010,05,04,08,17,8.20
2010,05,04,08,18,8.20
2010,05,04,08,19,8.30
2010,05,04,08,20,8.30
2010,05,04,08,21,8.40
2010,05,04,08,22,8.40
2010,05,04,08,23,8.50
2010,05,04,08,24,8.60
2010,05,04,08,25,8.70
2010,05,04,08,26,8.70
2010,05,04,08,27,8.80
2010,05,04,08,28,8.80
2010,05,04,08,29,8.90
2010,05,04,08,30,9.00
2010,05,04,08,31,9.10
2010,05,04,08,32,9.20
2010,05,04,08,33,9.20
2010,05,04,08,34,9.30
2010,05,04,08,35,9.30
2010,05,04,08,36,9.30
2010,05,04,08,37,9.30
2010,05,04,08,38,9.30
2010,05,04,08,39,9.40
2010,05,04,08,40,9.40
2010,05,04,08,41,9.40
2010,05,04,08,42,9.40
2010,05,04,08,43,9.30
2010,05,04,08,44,9.40
2010,05,04,08,45,9.40
2010,05,04,08,46,9.40
2010,05,04,08,47,9.40
2010,05,04,08,48,9.50
2010,05,04,08,49,9.60
2010,05,04,08,50,9.60
2010,05,04,08,51,9.70
2010,05,04,08,52,9.60
2010,05,04,08,53,9.50
2010,05,04,08,54,9.30
2010,05,04,08,55,9.10
2010,05,04,08,56,9.00
2010,05,04,08,57,8.80
2010,05,04,08,58,8.80
2010,05,04,08,59,8.80
2010,05,04,09,00,8.90
2010,05,04,09,01,9.00
2010,05,04,09,02,9.10
2010,05,04,09,03,9.20
2010,05,04,09,04,9.30
2010,05,04,09,05,9.30
2010,05,04,09,06,9.30
2010,05,04,09,07,9.30
2010,05,04,09,08,9.30
2010,05,04,09,09,9.40
2010,05,04,09,10,9.50
2010,05,04,09,11,9.60
2010,05,04,09,12,9.70
2010,05,04,09,13,9.70
2010,05,04,09,14,9.80
2010,05,04,09,15,9.80
2010,05,04,09,16,9.90
2010,05,04,09,17,9.90
2010,05,04,09,18,9.90
2010,05,04,09,19,10.00
2010,05,04,09,20,10.10
2010,05,04,09,21,10.00
2010,05,04,09,22,10.00
2010,05,04,09,23,9.90
2010,05,04,09,24,9.90
2010,05,04,09,25,9.70
2010,05,04,09,26,9.60
2010,05,04,09,27,9.50
2010,05,04,09,28,9.30
2010,05,04,09,29,9.10
2010,05,04,09,30,8.90
2010,05,04,09,31,8.80
2010,05,04,09,32,8.80
2010,05,04,09,33,8.70
2010,05,04,09,34,8.60
2010,05,04,09,35,8.60
2010,05,04,09,36,8.70
2010,05,04,09,37,8.70
2010,05,04,09,38,8.80
2010,05,04,09,39,8.90
2010,05,04,09,40,9.10
2010,05,04,09,41,9.20
2010,05,04,09,42,9.20
2010,05,04,09,43,9.20
2010,05,04,09,44,9.10
2010,05,04,09,45,9.10
2010,05,04,09,46,9.20
2010,05,04,09,47,9.30
2010,05,04,09,48,9.40
2010,05,04,09,49,9.50
2010,05,04,09,50,9.60
2010,05,04,09,51,9.60
2010,05,04,09,52,9.60
2010,05,04,09,53,9.60
2010,05,04,09,54,9.50
2010,05,04,09,55,9.40
2010,05,04,09,56,9.40
2010,05,04,09,57,9.40
2010,05,04,09,58,9.40
2010,05,04,09,59,9.40
2010,05,04,10,00,9.30
2010,05,04,10,01,9.30
2010,05,04,10,02,9.20
2010,05,04,10,03,9.30
2010,05,04,10,04,9.30
2010,05,04,10,05,9.40
2010,05,04,10,06,9.40
2010,05,04,10,07,9.40
2010,05,04,10,08,9.50
2010,05,04,10,09,9.50
2010,05,04,10,10,9.60
2010,05,04,10,11,9.70
2010,05,04,10,12,9.70
2010,05,04,10,13,9.70
2010,05,04,10,14,9.70
2010,05,04,10,15,9.60
2010,05,04,10,16,9.60
2010,05,04,10,17,9.60
2010,05,04,10,18,9.70
2010,05,04,10,19,9.70
2010,05,04,10,20,9.50
2010,05,04,10,21,9.30
2010,05,04,10,22,9.10
2010,05,04,10,23,8.90
2010,05,04,10,24,8.80
2010,05,04,10,25,8.80
2010,05,04,10,26,8.80
2010,05,04,10,27,8.70
2010,05,04,10,28,8.60
2010,05,04,10,29,8.60
2010,05,04,10,30,8.50
2010,05,04,10,31,8.40
2010,05,04,10,32,8.50
2010,05,04,10,33,8.50
2010,05,04,10,34,8.60
2010,05,04,10,35,8.60
2010,05,04,10,36,8.70
2010,05,04,10,37,8.70
2010,05,04,10,38,8.70
2010,05,04,10,39,8.70
2010,05,04,10,40,8.70
2010,05,04,10,41,8.80
2010,05,04,10,42,8.80
2010,05,04,10,43,8.80
2010,05,04,10,44,8.80
2010,05,04,10,45,8.80
2010,05,04,10,46,8.70
2010,05,04,10,47,8.70
2010,05,04,10,48,8.70
2010,05,04,10,49,8.70
2010,05,04,10,50,8.70
2010,05,04,10,51,8.70
2010,05,04,10,52,8.70
2010,05,04,10,53,8.60
2010,05,04,10,54,8.60
2010,05,04,10,55,8.60
2010,05,04,10,56,8.50
2010,05,04,10,57,8.50
2010,05,04,10,58,8.60
2010,05,04,10,59,8.60
2010,05,04,11,00,8.60
2010,05,04,11,01,8.60
2010,05,04,11,02,8.60
2010,05,04,11,03,8.60
2010,05,04,11,04,8.60
2010,05,04,11,05,8.60
2010,05,04,11,06,8.60
2010,05,04,11,07,8.60
2010,05,04,11,08,8.60
2010,05,04,11,09,8.70
2010,05,04,11,10,8.70
2010,05,04,11,11,8.70
2010,05,04,11,12,8.70
2010,05,04,11,13,8.70
2010,05,04,11,14,8.60
2010,05,04,11,15,8.60
2010,05,04,11,16,8.60
2010,05,04,11,17,8.60
2010,05,04,11,18,8.70
2010,05,04,11,19,8.80
2010,05,04,11,20,8.80
2010,05,04,11,21,8.90
2010,05,04,11,22,8.90
2010,05,04,11,23,8.90
2010,05,04,11,24,8.90
2010,05,04,11,25,9.00
2010,05,04,11,26,9.10
2010,05,04,11,27,9.10
2010,05,04,11,28,9.10
2010,05,04,11,29,9.10
2010,05,04,11,30,9.10
2010,05,04,11,31,9.30
2010,05,04,11,32,9.40
2010,05,04,11,33,9.50
2010,05,04,11,34,9.60
2010,05,04,11,35,9.70
2010,05,04,11,36,9.80
2010,05,04,11,37,9.80
2010,05,04,11,38,9.70
2010,05,04,11,39,9.60
2010,05,04,11,40,9.60
2010,05,04,11,41,9.60
2010,05,04,11,42,9.60
2010,05,04,11,43,9.70
2010,05,04,11,44,9.80
2010,05,04,11,45,9.90
2010,05,04,11,46,10.00
2010,05,04,11,47,10.00
2010,05,04,11,48,9.90
2010,05,04,11,49,9.90
2010,05,04,11,50,9.80
2010,05,04,11,51,9.80
2010,05,04,11,52,9.90
2010,05,04,11,53,10.00
2010,05,04,11,54,10.10
2010,05,04,11,55,10.10
2010,05,04,11,56,10.10
2010,05,04,11,57,10.10
2010,05,04,11,58,10.10
2010,05,04,11,59,10.10
2010,05,04,12,00,10.10
2010,05,04,12,01,10.20
2010,05,04,12,02,10.30
2010,05,04,12,03,10.20
2010,05,04,12,04,10.20
2010,05,04,12,05,10.20
2010,05,04,12,06,10.20
2010,05,04,12,07,10.10
2010,05,04,12,08,10.10
2010,05,04,12,09,10.10
2010,05,04,12,10,10.10
2010,05,04,12,11,10.10
2010,05,04,12,12,10.20
2010,05,04,12,13,10.30
2010,05,04,12,14,10.30
2010,05,04,12,15,10.20
2010,05,04,12,16,10.10
2010,05,04,12,17,9.90
2010,05,04,12,18,9.90
2010,05,04,12,19,9.90
2010,05,04,12,20,10.00
2010,05,04,12,21,10.00
2010,05,04,12,22,10.10
2010,05,04,12,23,10.10
2010,05,04,12,24,10.10
2010,05,04,12,25,10.10
2010,05,04,12,26,10.20
2010,05,04,12,27,10.30
2010,05,04,12,28,10.40
2010,05,04,12,29,10.50
2010,05,04,12,30,10.60
2010,05,04,12,31,10.70
2010,05,04,12,32,10.70
2010,05,04,12,33,10.70
2010,05,04,12,34,10.70
2010,05,04,12,35,10.70
2010,05,04,12,36,10.60
2010,05,04,12,37,10.50
2010,05,04,12,38,10.50
2010,05,04,12,39,10.50
2010,05,04,12,40,10.40
2010,05,04,12,41,10.50
2010,05,04,12,42,10.30
2010,05,04,12,43,10.00
2010,05,04,12,44,9.90
2010,05,04,12,45,9.70
2010,05,04,12,46,9.60
2010,05,04,12,47,9.60
2010,05,04,12,48,9.60
2010,05,04,12,49,9.50
2010,05,04,12,50,9.50
2010,05,04,12,51,9.50
2010,05,04,12,52,9.60
2010,05,04,12,53,9.60
2010,05,04,12,54,9.70
2010,05,04,12,55,9.80
2010,05,04,12,56,9.80
2010,05,04,12,57,9.90
2010,05,04,12,58,10.00
2010,05,04,12,59,10.10
2010,05,04,13,00,10.20
2010,05,04,13,01,10.20
2010,05,04,13,02,10.20
2010,05,04,13,03,10.10
2010,05,04,13,04,10.10
2010,05,04,13,05,10.10
2010,05,04,13,06,10.10
2010,05,04,13,07,10.20
2010,05,04,13,08,10.20
2010,05,04,13,09,10.10
2010,05,04,13,10,10.00
2010,05,04,13,11,9.90
2010,05,04,13,12,9.90
2010,05,04,13,13,9.90
2010,05,04,13,14,9.90
2010,05,04,13,15,9.90
2010,05,04,13,16,9.90
2010,05,04,13,17,9.90
2010,05,04,13,18,10.00
2010,05,04,13,19,10.00
2010,05,04,13,20,10.00
2010,05,04,13,21,9.90
2010,05,04,13,22,9.90
2010,05,04,13,23,9.90
2010,05,04,13,24,9.90
2010,05,04,13,25,9.90
2010,05,04,13,26,9.90
2010,05,04,13,27,9.90
2010,05,04,13,28,9.90
2010,05,04,13,29,9.80
2010,05,04,13,30,9.70
2010,05,04,13,31,9.60
2010,05,04,13,32,9.60
2010,05,04,13,33,9.60
2010,05,04,13,34,9.50
2010,05,04,13,35,9.40
2010,05,04,13,36,9.40
2010,05,04,13,37,9.50
2010,05,04,13,38,9.40
2010,05,04,13,39,9.50
2010,05,04,13,40,9.50
2010,05,04,13,41,9.60
2010,05,04,13,42,9.60
2010,05,04,13,43,9.70
2010,05,04,13,44,9.70
2010,05,04,13,45,9.60
2010,05,04,13,46,9.60
2010,05,04,13,47,9.70
2010,05,04,13,48,9.70
2010,05,04,13,49,9.60
2010,05,04,13,50,9.60
2010,05,04,13,51,9.60
2010,05,04,13,52,9.60
2010,05,04,13,53,9.50
2010,05,04,13,54,9.50
2010,05,04,13,55,9.50
2010,05,04,13,56,9.60
2010,05,04,13,57,9.60
2010,05,04,13,58,9.60
2010,05,04,13,59,9.70
2010,05,04,14,00,9.70
2010,05,04,14,01,9.70
2010,05,04,14,02,9.70
2010,05,04,14,03,9.60
2010,05,04,14,04,9.60
2010,05,04,14,05,9.60
2010,05,04,14,06,9.60
2010,05,04,14,07,9.50
2010,05,04,14,08,9.40
2010,05,04,14,09,9.30
2010,05,04,14,10,9.30
2010,05,04,14,11,9.30
2010,05,04,14,12,9.20
2010,05,04,14,13,9.20
2010,05,04,14,14,9.20
2010,05,04,14,15,9.20
2010,05,04,14,16,9.20
2010,05,04,14,17,9.20
2010,05,04,14,18,9.20
2010,05,04,14,19,9.10
2010,05,04,14,20,9.10
2010,05,04,14,21,9.10
2010,05,04,14,22,9.10
2010,05,04,14,23,9.10
2010,05,04,14,24,9.10
2010,05,04,14,25,9.10
2010,05,04,14,26,9.10
2010,05,04,14,27,9.10
2010,05,04,14,28,9.10
2010,05,04,14,29,9.10
2010,05,04,14,30,9.10
2010,05,04,14,31,9.10
2010,05,04,14,32,9.10
2010,05,04,14,33,9.10
2010,05,04,14,34,9.10
2010,05,04,14,35,9.10
2010,05,04,14,36,9.10
2010,05,04,14,37,9.00
2010,05,04,14,38,9.00
2010,05,04,14,39,8.90
2010,05,04,14,40,8.90
2010,05,04,14,41,8.80
2010,05,04,14,42,8.80
2010,05,04,14,43,8.80
2010,05,04,14,44,8.70
2010,05,04,14,45,8.70
2010,05,04,14,46,8.60
2010,05,04,14,47,8.60
2010,05,04,14,48,8.60
2010,05,04,14,49,8.60
2010,05,04,14,50,8.50
2010,05,04,14,51,8.40
2010,05,04,14,52,8.40
2010,05,04,14,53,8.30
2010,05,04,14,54,8.30
2010,05,04,14,55,8.20
2010,05,04,14,56,8.20
2010,05,04,14,57,8.10
2010,05,04,14,58,8.10
2010,05,04,14,59,8.10
2010,05,04,15,00,8.10
2010,05,04,15,01,8.10
2010,05,04,15,02,8.20
2010,05,04,15,03,8.30
2010,05,04,15,04,8.30
2010,05,04,15,05,8.40
2010,05,04,15,06,8.40
2010,05,04,15,07,8.30
2010,05,04,15,08,8.30
2010,05,04,15,09,8.30
2010,05,04,15,10,8.40
2010,05,04,15,11,8.40
2010,05,04,15,12,8.40
2010,05,04,15,13,8.40
2010,05,04,15,14,8.40
2010,05,04,15,15,8.40
2010,05,04,15,16,8.40
2010,05,04,15,17,8.40
2010,05,04,15,18,8.40
2010,05,04,15,19,8.50
2010,05,04,15,20,8.60
2010,05,04,15,21,8.60
2010,05,04,15,22,8.70
2010,05,04,15,23,8.80
2010,05,04,15,24,8.80
2010,05,04,15,25,8.80
2010,05,04,15,26,8.90
2010,05,04,15,27,8.90
2010,05,04,15,28,9.00
2010,05,04,15,29,9.10
2010,05,04,15,30,9.10
2010,05,04,15,31,9.10
2010,05,04,15,32,9.10
2010,05,04,15,33,9.10
2010,05,04,15,34,9.20
2010,05,04,15,35,9.10
2010,05,04,15,36,9.00
2010,05,04,15,37,8.90
2010,05,04,15,38,8.80
2010,05,04,15,39,8.70
2010,05,04,15,40,8.70
2010,05,04,15,41,8.70
2010,05,04,15,42,8.70
2010,05,04,15,43,8.70
2010,05,04,15,44,8.80
2010,05,04,15,45,8.80
2010,05,04,15,46,8.90
2010,05,04,15,47,9.00
2010,05,04,15,48,9.00
2010,05,04,15,49,9.10
2010,05,04,15,50,9.10
2010,05,04,15,51,9.10
2010,05,04,15,52,9.10
2010,05,04,15,53,9.10
2010,05,04,15,54,9.20
2010,05,04,15,55,9.20
2010,05,04,15,56,9.20
2010,05,04,15,57,9.30
2010,05,04,15,58,9.30
2010,05,04,15,59,9.30
2010,05,04,16,00,9.30
2010,05,04,16,01,9.40
2010,05,04,16,02,9.40
2010,05,04,16,03,9.40
2010,05,04,16,04,9.40
2010,05,04,16,05,9.50
2010,05,04,16,06,9.50
2010,05,04,16,07,9.50
2010,05,04,16,08,9.60
2010,05,04,16,09,9.60
2010,05,04,16,10,9.60
2010,05,04,16,11,9.60
2010,05,04,16,12,9.70
2010,05,04,16,13,9.70
2010,05,04,16,14,9.60
2010,05,04,16,15,9.60
2010,05,04,16,16,9.60
2010,05,04,16,17,9.50
2010,05,04,16,18,9.50
2010,05,04,16,19,9.60
2010,05,04,16,20,9.60
2010,05,04,16,21,9.60
2010,05,04,16,22,9.60
2010,05,04,16,23,9.60
2010,05,04,16,24,9.60
2010,05,04,16,25,9.70
2010,05,04,16,26,9.70
2010,05,04,16,27,9.80
2010,05,04,16,28,9.80
2010,05,04,16,29,9.80
2010,05,04,16,30,9.90
2010,05,04,16,31,9.90
2010,05,04,16,32,10.00
2010,05,04,16,33,10.00
2010,05,04,16,34,10.10
2010,05,04,16,35,10.10
2010,05,04,16,36,10.10
2010,05,04,16,37,10.20
2010,05,04,16,38,10.20
2010,05,04,16,39,10.20
2010,05,04,16,40,10.30
2010,05,04,16,41,10.20
2010,05,04,16,42,10.20
2010,05,04,16,43,10.20
2010,05,04,16,44,10.20
2010,05,04,16,45,10.30
2010,05,04,16,46,10.30
2010,05,04,16,47,10.40
2010,05,04,16,48,10.40
2010,05,04,16,49,10.50
2010,05,04,16,50,10.60
2010,05,04,16,51,10.70
2010,05,04,16,52,10.80
2010,05,04,16,53,10.80
2010,05,04,16,54,10.90
2010,05,04,16,55,10.90
2010,05,04,16,56,10.90
2010,05,04,16,57,11.00
2010,05,04,16,58,11.00
2010,05,04,16,59,11.00
2010,05,04,17,00,11.10
2010,05,04,17,01,11.10
2010,05,04,17,02,11.20
2010,05,04,17,03,11.20
2010,05,04,17,04,11.20
2010,05,04,17,05,11.20
2010,05,04,17,06,11.20
2010,05,04,17,07,11.20
2010,05,04,17,08,11.20
2010,05,04,17,09,11.20
2010,05,04,17,10,11.10
2010,05,04,17,11,11.10
2010,05,04,17,12,11.00
2010,05,04,17,13,10.90
2010,05,04,17,14,10.90
2010,05,04,17,15,10.80
2010,05,04,17,16,10.80
2010,05,04,17,17,10.70
2010,05,04,17,18,10.60
2010,05,04,17,19,10.60
2010,05,04,17,20,10.50
2010,05,04,17,21,10.30
2010,05,04,17,22,10.20
2010,05,04,17,23,10.10
2010,05,04,17,24,10.10
2010,05,04,17,25,10.10
2010,05,04,17,26,10.00
2010,05,04,17,27,9.90
2010,05,04,17,28,9.90
2010,05,04,17,29,9.90
2010,05,04,17,30,9.80
2010,05,04,17,31,9.80
2010,05,04,17,32,9.80
2010,05,04,17,33,9.80
2010,05,04,17,34,9.80
2010,05,04,17,35,9.80
2010,05,04,17,36,9.70
2010,05,04,17,37,9.70
2010,05,04,17,38,9.70
2010,05,04,17,39,9.60
2010,05,04,17,40,9.60
2010,05,04,17,41,9.50
2010,05,04,17,42,9.50
2010,05,04,17,43,9.40
2010,05,04,17,44,9.40
2010,05,04,17,45,9.30
2010,05,04,17,46,9.30
2010,05,04,17,47,9.20
2010,05,04,17,48,9.10
2010,05,04,17,49,9.10
2010,05,04,17,50,9.00
2010,05,04,17,51,8.90
2010,05,04,17,52,8.90
2010,05,04,17,53,8.80
2010,05,04,17,54,8.70
2010,05,04,17,55,8.70
2010,05,04,17,56,8.60
2010,05,04,17,57,8.60
2010,05,04,17,58,8.60
2010,05,04,17,59,8.60
2010,05,04,18,00,8.60
2010,05,04,18,01,8.50